Weather History for Luxor, Egypt

Change the Weather History Date:

Friday, July 12, 2013

  Actual Average Record
Temperature  
Mean Temperature 93 °F -  
Max Temperature 105 °F 103 °F 111 °F (2005)
Min Temperature 81 °F 77 °F 73 °F (2003)
Cooling Degree Days 28    
Growing Degree Days 43 (Base 50)    
Moisture  
Dew Point 61 °F    
Average Humidity 33    
Maximum Humidity 51    
Minimum Humidity 16    
Precipitation  
Precipitation 0.00 in 0.00 in - ()
Sea Level Pressure  
Sea Level Pressure 29.66 in    
Wind  
Wind Speed 3 mph ()    
Max Wind Speed 13 mph    
Max Gust Speed -    
Visibility 6.0 miles    
Events      
Averages and records for this station are not official NWS values.
T = Trace of Precipitation, MM = Missing Value Source: Averaged Metar Reports

Daily Weather History Graph

Daily Weather History Graph

Search for Another Location

Airport:

Trip Planner

Search our weather history database for the weather conditions in past years. The results will help you decide how hot, cold, wet, or windy it might be!

Date:

Astronomy

Jul. 12, 2013 Rise Set
Actual Time 5:06 AM EET 6:43 PM EET
Civil Twilight 4:40 AM EET 7:09 PM EET
Nautical Twilight 4:09 AM EET 7:39 PM EET
Astronomical Twilight 3:37 AM EET 8:11 PM EET
Moon 8:35 AM EET (7/12) 9:14 PM EET (7/12)
Length of Visible Light 14h 28m
Length of Day
13h 37m
Waxing Crescent, 15% of the Moon is Illuminated
Jul 12
Waxing Crescent
Jul 16
First Quarter
Jul 22
Full
Jul 29
Last Quarter
Aug 6
New

Hourly Weather History & Observations

Time (EET) Temp. Heat Index Dew Point Humidity Pressure Visibility Wind Dir Wind Speed Gust Speed Precip Events Conditions
12:00 AM 87.8 °F 87.1 °F 59.0 °F 38% 29.65 in - SSE 2.3 mph - N/A   Clear
1:00 AM 86.0 °F 85.4 °F 59.0 °F 40% 29.65 in - Calm Calm - N/A   Clear
2:00 AM 84 °F - 59 °F 33% 29.65 in 6 mi Calm Calm - -  
2:00 AM 84.2 °F 83.8 °F 59.0 °F 42% 29.65 in - Calm Calm - N/A   Clear
3:00 AM 82.4 °F 82.5 °F 59.0 °F 45% 29.65 in - Calm Calm - N/A   Clear
4:00 AM 82.4 °F 83.4 °F 62.6 °F 51% 29.65 in - WNW 3.5 mph - N/A   Clear
5:00 AM 82 °F - 62 °F 40% 29.67 in 6 mi Calm Calm - -  
5:00 AM 82.4 °F 83.4 °F 62.6 °F 51% 29.68 in - Calm Calm - N/A   Clear
6:00 AM 82.4 °F 83.4 °F 62.6 °F 51% 29.68 in - NNW 2.3 mph - N/A   Clear
7:00 AM 86.0 °F 86.6 °F 62.6 °F 45% 29.68 in - Calm Calm - N/A   Clear
8:00 AM 89 °F - 59 °F 26% 29.70 in 6 mi WNW 3.5 mph - -  
8:00 AM 89.6 °F 88.9 °F 59.0 °F 36% 29.71 in - WNW 3.5 mph - N/A   Clear
9:00 AM 89.6 °F 88.1 °F 57.2 °F 33% 29.71 in - NNW 5.8 mph - N/A   Clear
10:00 AM 91.4 °F 90.7 °F 59.0 °F 34% 29.71 in - NNW 5.8 mph - N/A   Clear
11:00 AM 94 °F - 62 °F 24% 29.68 in 6 mi NNW 5.8 mph - -  
11:00 AM 95.0 °F 95.2 °F 60.8 °F 32% 29.68 in - NNW 5.8 mph - N/A   Clear
12:00 PM 98.6 °F 100.0 °F 62.6 °F 30% 29.68 in - NNW 6.9 mph - N/A   Clear
1:00 PM 100.4 °F 100.2 °F 59.0 °F 25% 29.65 in - NNW 5.8 mph - N/A   Clear
2:00 PM 103 °F - 61 °F 16% 29.63 in 6 mi NW 13.4 mph - -  
2:00 PM 104.0 °F 105.3 °F 60.8 °F 24% 29.65 in - NW 6.9 mph - N/A   Clear
3:00 PM 104.0 °F 105.3 °F 60.8 °F 24% 29.62 in - NW 9.2 mph - N/A   Clear
4:00 PM 104.0 °F 106.6 °F 62.6 °F 26% 29.62 in - WNW 9.2 mph - N/A   Clear
5:00 PM 103 °F - 61 °F 17% 29.60 in 6 mi WNW 9.2 mph - -  
5:00 PM 104.0 °F 105.3 °F 60.8 °F 24% 29.62 in - WNW 9.2 mph - N/A   Clear
6:00 PM 98.6 °F 100.0 °F 62.6 °F 30% 29.62 in - West 6.9 mph - N/A   Clear
7:00 PM 96.8 °F 97.1 °F 60.8 °F 30% 29.62 in - West 6.9 mph - N/A   Clear
8:00 PM 93 °F - 61 °F 24% 29.64 in 6 mi West 3.5 mph - -  
8:00 PM 93.2 °F 93.3 °F 60.8 °F 34% 29.65 in - West 3.5 mph - N/A   Clear
9:00 PM 93.2 °F 92.6 °F 59.0 °F 32% 29.65 in - West 4.6 mph - N/A   Clear
10:00 PM 91.4 °F 90.7 °F 59.0 °F 34% 29.68 in - SSW 3.5 mph - N/A   Clear
11:00 PM 88 °F - 60 °F 29% 29.67 in 6 mi SW 3.5 mph - -  
11:00 PM 87.8 °F 87.6 °F 60.8 °F 40% 29.71 in - SW 3.5 mph - N/A   Clear